Aérodrome :
LOGIN :

S'inscrire | Disclaimer

   EN    FR    IT 

 










Légende :    VFR   VFR Marginal   IFR   IFR Intensif   IFR Très Intensif
Visi : 
Plafond : 
>= 8 km
>= 3000ft
5 à 8 km
1000 à 3000 ft
1500m à 5 km
500 à 1000 ft
800 à 1500m
200 à 500 ft
< 800m
< 200 ft
Symboles :   Orages  Brouillard  Fortes neiges  Fortes précipitations  Vent > 20 kt
SIGMETs :   Divers  Orages  Givrage  Turbulence  Onde Orograph.  Cendres Volcan.






- Altitude de l'aérodrome : 142 ft
- Code IATA : FLR


LIRQ - Firenze Amerigo Vespucci

DERNIER METAR :
  • 090950Z VRB05KT CAVOK 13/03 Q1013

METARs EXPIRÉS :
  • 090850Z 08009KT 020V150 CAVOK 12/03 Q1013
  • 090820Z VRB04KT CAVOK 12/03 Q1013
  • 090750Z VRB05KT 9999 FEW060 11/03 Q1013
  • 090720Z 30006KT 240V010 9999 FEW050 11/04 Q1013
  • 090650Z VRB03KT 9999 FEW050 11/04 Q1013

TAF TAF LIRQ
Valide du 09 à 06h jusqu'au 10 à 06h UTC


090500Z 0906/1006 03008KT 9999 SCT040



MET'MAP, la Météo Aéronautique d'un coup d'oeil ! - Copyright ORBIFLY Décembre 2007 - Disclaimer

ORBIFLY MET'MAP TEAM :

Programmation & Développement : Alexandra Zaïnal
Sur une idée originale de : Baudouin d'Aumeries
Assistance à la programmation : Marc-Olivier Méhu
Soutien technique & logistique : Manuel Goepfert

Contact : metmap@orbifly.com




SOURCES & CREDITS :

   NOAA